Year,Month,Day,Hour,Minute,Value (Times are PST for temperature in C)
2012,05,26,00,00,15.90
2012,05,26,00,01,15.80
2012,05,26,00,02,15.80
2012,05,26,00,03,15.80
2012,05,26,00,04,15.80
2012,05,26,00,05,15.80
2012,05,26,00,06,15.80
2012,05,26,00,07,15.80
2012,05,26,00,08,15.70
2012,05,26,00,09,15.70
2012,05,26,00,10,15.70
2012,05,26,00,11,15.70
2012,05,26,00,12,15.70
2012,05,26,00,13,15.60
2012,05,26,00,14,15.60
2012,05,26,00,15,15.60
2012,05,26,00,16,15.60
2012,05,26,00,17,15.60
2012,05,26,00,18,15.60
2012,05,26,00,19,15.50
2012,05,26,00,20,15.50
2012,05,26,00,21,15.50
2012,05,26,00,22,15.50
2012,05,26,00,23,15.50
2012,05,26,00,24,15.50
2012,05,26,00,25,15.50
2012,05,26,00,26,15.50
2012,05,26,00,27,15.50
2012,05,26,00,28,15.50
2012,05,26,00,29,15.40
2012,05,26,00,30,15.40
2012,05,26,00,31,15.40
2012,05,26,00,32,15.30
2012,05,26,00,33,15.30
2012,05,26,00,34,15.30
2012,05,26,00,35,15.30
2012,05,26,00,36,15.30
2012,05,26,00,37,15.20
2012,05,26,00,38,15.20
2012,05,26,00,39,15.20
2012,05,26,00,40,15.10
2012,05,26,00,41,15.10
2012,05,26,00,42,15.10
2012,05,26,00,43,15.00
2012,05,26,00,44,15.00
2012,05,26,00,45,15.00
2012,05,26,00,46,15.00
2012,05,26,00,47,15.00
2012,05,26,00,48,15.00
2012,05,26,00,49,15.00
2012,05,26,00,50,15.00
2012,05,26,00,51,15.00
2012,05,26,00,52,15.00
2012,05,26,00,53,15.00
2012,05,26,00,54,15.00
2012,05,26,00,55,15.00
2012,05,26,00,56,15.00
2012,05,26,00,57,15.00
2012,05,26,00,58,15.00
2012,05,26,00,59,15.00
2012,05,26,01,00,15.00
2012,05,26,01,01,14.90
2012,05,26,01,02,14.90
2012,05,26,01,03,14.90
2012,05,26,01,04,14.80
2012,05,26,01,05,14.80
2012,05,26,01,06,14.80
2012,05,26,01,07,14.80
2012,05,26,01,08,14.70
2012,05,26,01,09,14.70
2012,05,26,01,10,14.70
2012,05,26,01,11,14.70
2012,05,26,01,12,14.70
2012,05,26,01,13,14.70
2012,05,26,01,14,14.70
2012,05,26,01,15,14.70
2012,05,26,01,16,14.60
2012,05,26,01,17,14.60
2012,05,26,01,18,14.60
2012,05,26,01,19,14.60
2012,05,26,01,20,14.50
2012,05,26,01,21,14.50
2012,05,26,01,22,14.50
2012,05,26,01,23,14.40
2012,05,26,01,24,14.40
2012,05,26,01,25,14.40
2012,05,26,01,26,14.40
2012,05,26,01,27,14.30
2012,05,26,01,28,14.30
2012,05,26,01,29,14.30
2012,05,26,01,30,14.20
2012,05,26,01,31,14.20
2012,05,26,01,32,14.20
2012,05,26,01,33,14.10
2012,05,26,01,34,14.10
2012,05,26,01,35,14.10
2012,05,26,01,36,14.00
2012,05,26,01,37,13.90
2012,05,26,01,38,13.90
2012,05,26,01,39,13.90
2012,05,26,01,40,13.80
2012,05,26,01,41,13.80
2012,05,26,01,42,13.80
2012,05,26,01,43,13.70
2012,05,26,01,44,13.70
2012,05,26,01,45,13.70
2012,05,26,01,46,13.60
2012,05,26,01,47,13.60
2012,05,26,01,48,13.50
2012,05,26,01,49,13.50
2012,05,26,01,50,13.40
2012,05,26,01,51,13.40
2012,05,26,01,52,13.30
2012,05,26,01,53,13.30
2012,05,26,01,54,13.30
2012,05,26,01,55,13.20
2012,05,26,01,56,13.10
2012,05,26,01,57,13.10
2012,05,26,01,58,13.10
2012,05,26,01,59,13.00
2012,05,26,02,00,12.90
2012,05,26,02,01,12.90
2012,05,26,02,02,12.90
2012,05,26,02,03,12.80
2012,05,26,02,04,12.80
2012,05,26,02,05,12.70
2012,05,26,02,06,12.70
2012,05,26,02,07,12.60
2012,05,26,02,08,12.60
2012,05,26,02,09,12.50
2012,05,26,02,10,12.50
2012,05,26,02,11,12.50
2012,05,26,02,12,12.40
2012,05,26,02,13,12.40
2012,05,26,02,14,12.30
2012,05,26,02,15,12.30
2012,05,26,02,16,12.20
2012,05,26,02,17,12.20
2012,05,26,02,18,12.20
2012,05,26,02,19,12.10
2012,05,26,02,20,12.10
2012,05,26,02,21,12.00
2012,05,26,02,22,12.00
2012,05,26,02,23,12.00
2012,05,26,02,24,11.90
2012,05,26,02,25,11.90
2012,05,26,02,26,11.90
2012,05,26,02,27,11.90
2012,05,26,02,28,11.80
2012,05,26,02,29,11.80
2012,05,26,02,30,11.80
2012,05,26,02,31,11.80
2012,05,26,02,32,11.80
2012,05,26,02,33,11.70
2012,05,26,02,34,11.70
2012,05,26,02,35,11.70
2012,05,26,02,36,11.70
2012,05,26,02,37,11.70
2012,05,26,02,38,11.60
2012,05,26,02,39,11.60
2012,05,26,02,40,11.60
2012,05,26,02,41,11.60
2012,05,26,02,42,11.60
2012,05,26,02,43,11.60
2012,05,26,02,44,11.60
2012,05,26,02,45,11.60
2012,05,26,02,46,11.50
2012,05,26,02,47,11.50
2012,05,26,02,48,11.50
2012,05,26,02,49,11.50
2012,05,26,02,50,11.50
2012,05,26,02,51,11.40
2012,05,26,02,52,11.40
2012,05,26,02,53,11.40
2012,05,26,02,54,11.40
2012,05,26,02,55,11.40
2012,05,26,02,56,11.40
2012,05,26,02,57,11.40
2012,05,26,02,58,11.40
2012,05,26,02,59,11.40
2012,05,26,03,00,11.40
2012,05,26,03,01,11.40
2012,05,26,03,02,11.40
2012,05,26,03,03,11.40
2012,05,26,03,04,11.40
2012,05,26,03,05,11.40
2012,05,26,03,06,11.40
2012,05,26,03,07,11.40
2012,05,26,03,08,11.40
2012,05,26,03,09,11.40
2012,05,26,03,10,11.40
2012,05,26,03,11,11.40
2012,05,26,03,12,11.40
2012,05,26,03,13,11.40
2012,05,26,03,14,11.40
2012,05,26,03,15,11.40
2012,05,26,03,16,11.40
2012,05,26,03,17,11.40
2012,05,26,03,18,11.40
2012,05,26,03,19,11.40
2012,05,26,03,20,11.30
2012,05,26,03,21,11.30
2012,05,26,03,22,11.30
2012,05,26,03,23,11.30
2012,05,26,03,24,11.30
2012,05,26,03,25,11.30
2012,05,26,03,26,11.30
2012,05,26,03,27,11.30
2012,05,26,03,28,11.20
2012,05,26,03,29,11.20
2012,05,26,03,30,11.20
2012,05,26,03,31,11.20
2012,05,26,03,32,11.20
2012,05,26,03,33,11.20
2012,05,26,03,34,11.20
2012,05,26,03,35,11.20
2012,05,26,03,36,11.20
2012,05,26,03,37,11.20
2012,05,26,03,38,11.20
2012,05,26,03,39,11.20
2012,05,26,03,40,11.10
2012,05,26,03,41,11.10
2012,05,26,03,42,11.10
2012,05,26,03,43,11.10
2012,05,26,03,44,11.10
2012,05,26,03,45,11.00
2012,05,26,03,46,11.00
2012,05,26,03,47,11.00
2012,05,26,03,48,10.90
2012,05,26,03,49,10.90
2012,05,26,03,50,10.90
2012,05,26,03,51,10.90
2012,05,26,03,52,10.90
2012,05,26,03,53,10.90
2012,05,26,03,54,10.90
2012,05,26,03,55,10.80
2012,05,26,03,56,10.80
2012,05,26,03,57,10.80
2012,05,26,03,58,10.80
2012,05,26,03,59,10.80
2012,05,26,04,00,10.80
2012,05,26,04,01,10.80
2012,05,26,04,02,10.80
2012,05,26,04,03,10.80
2012,05,26,04,04,10.80
2012,05,26,04,05,10.70
2012,05,26,04,06,10.70
2012,05,26,04,07,10.70
2012,05,26,04,08,10.70
2012,05,26,04,09,10.70
2012,05,26,04,10,10.70
2012,05,26,04,11,10.60
2012,05,26,04,12,10.60
2012,05,26,04,13,10.60
2012,05,26,04,14,10.60
2012,05,26,04,15,10.60
2012,05,26,04,16,10.50
2012,05,26,04,17,10.50
2012,05,26,04,18,10.50
2012,05,26,04,19,10.50
2012,05,26,04,20,10.40
2012,05,26,04,21,10.40
2012,05,26,04,22,10.40
2012,05,26,04,23,10.40
2012,05,26,04,24,10.40
2012,05,26,04,25,10.30
2012,05,26,04,26,10.30
2012,05,26,04,27,10.30
2012,05,26,04,28,10.30
2012,05,26,04,29,10.30
2012,05,26,04,30,10.20
2012,05,26,04,31,10.20
2012,05,26,04,32,10.20
2012,05,26,04,33,10.10
2012,05,26,04,34,10.10
2012,05,26,04,35,10.10
2012,05,26,04,36,10.00
2012,05,26,04,37,10.00
2012,05,26,04,38,10.00
2012,05,26,04,39,9.90
2012,05,26,04,40,9.90
2012,05,26,04,41,9.90
2012,05,26,04,42,9.90
2012,05,26,04,43,9.90
2012,05,26,04,44,9.80
2012,05,26,04,45,9.80
2012,05,26,04,46,9.80
2012,05,26,04,47,9.80
2012,05,26,04,48,9.80
2012,05,26,04,49,9.80
2012,05,26,04,50,9.70
2012,05,26,04,51,9.70
2012,05,26,04,52,9.70
2012,05,26,04,53,9.70
2012,05,26,04,54,9.60
2012,05,26,04,55,9.60
2012,05,26,04,56,9.60
2012,05,26,04,57,9.60
2012,05,26,04,58,9.60
2012,05,26,04,59,9.60
2012,05,26,05,00,9.60
2012,05,26,05,01,9.50
2012,05,26,05,02,9.50
2012,05,26,05,03,9.50
2012,05,26,05,04,9.50
2012,05,26,05,05,9.50
2012,05,26,05,06,9.40
2012,05,26,05,07,9.40
2012,05,26,05,08,9.50
2012,05,26,05,09,9.40
2012,05,26,05,10,9.50
2012,05,26,05,11,9.50
2012,05,26,05,12,9.50
2012,05,26,05,13,9.50
2012,05,26,05,14,9.50
2012,05,26,05,15,9.50
2012,05,26,05,16,9.50
2012,05,26,05,17,9.50
2012,05,26,05,18,9.50
2012,05,26,05,19,9.50
2012,05,26,05,20,9.50
2012,05,26,05,21,9.50
2012,05,26,05,22,9.40
2012,05,26,05,23,9.40
2012,05,26,05,24,9.40
2012,05,26,05,25,9.40
2012,05,26,05,26,9.40
2012,05,26,05,27,9.40
2012,05,26,05,28,9.40
2012,05,26,05,29,9.30
2012,05,26,05,30,9.30
2012,05,26,05,31,9.30
2012,05,26,05,32,9.30
2012,05,26,05,33,9.30
2012,05,26,05,34,9.30
2012,05,26,05,35,9.30
2012,05,26,05,36,9.20
2012,05,26,05,37,9.20
2012,05,26,05,38,9.20
2012,05,26,05,39,9.20
2012,05,26,05,40,9.20
2012,05,26,05,41,9.20
2012,05,26,05,42,9.20
2012,05,26,05,43,9.20
2012,05,26,05,44,9.20
2012,05,26,05,45,9.20
2012,05,26,05,46,9.20
2012,05,26,05,47,9.20
2012,05,26,05,48,9.10
2012,05,26,05,49,9.10
2012,05,26,05,50,9.10
2012,05,26,05,51,9.10
2012,05,26,05,52,9.10
2012,05,26,05,53,9.10
2012,05,26,05,54,9.10
2012,05,26,05,55,9.10
2012,05,26,05,56,9.10
2012,05,26,05,57,9.10
2012,05,26,05,58,9.10
2012,05,26,05,59,9.10
2012,05,26,06,00,9.10
2012,05,26,06,01,9.10
2012,05,26,06,02,9.10
2012,05,26,06,03,9.10
2012,05,26,06,04,9.10
2012,05,26,06,05,9.10
2012,05,26,06,06,9.10
2012,05,26,06,07,9.10
2012,05,26,06,08,9.10
2012,05,26,06,09,9.10
2012,05,26,06,10,9.10
2012,05,26,06,11,9.20
2012,05,26,06,12,9.20
2012,05,26,06,13,9.20
2012,05,26,06,14,9.20
2012,05,26,06,15,9.20
2012,05,26,06,16,9.20
2012,05,26,06,17,9.20
2012,05,26,06,18,9.30
2012,05,26,06,19,9.30
2012,05,26,06,20,9.30
2012,05,26,06,21,9.30
2012,05,26,06,22,9.30
2012,05,26,06,23,9.30
2012,05,26,06,24,9.40
2012,05,26,06,25,9.40
2012,05,26,06,26,9.50
2012,05,26,06,27,9.50
2012,05,26,06,28,9.60
2012,05,26,06,29,9.60
2012,05,26,06,30,9.70
2012,05,26,06,31,9.70
2012,05,26,06,32,9.70
2012,05,26,06,33,9.80
2012,05,26,06,34,9.80
2012,05,26,06,35,9.80
2012,05,26,06,36,9.90
2012,05,26,06,37,9.90
2012,05,26,06,38,9.90
2012,05,26,06,39,10.00
2012,05,26,06,40,10.00
2012,05,26,06,41,10.10
2012,05,26,06,42,10.10
2012,05,26,06,43,10.10
2012,05,26,06,44,10.10
2012,05,26,06,45,10.20
2012,05,26,06,46,10.20
2012,05,26,06,47,10.30
2012,05,26,06,48,10.30
2012,05,26,06,49,10.40
2012,05,26,06,50,10.40
2012,05,26,06,51,10.50
2012,05,26,06,52,10.60
2012,05,26,06,53,10.60
2012,05,26,06,54,10.70
2012,05,26,06,55,10.70
2012,05,26,06,56,10.70
2012,05,26,06,57,10.80
2012,05,26,06,58,10.80
2012,05,26,06,59,10.90
2012,05,26,07,00,10.90
2012,05,26,07,01,11.00
2012,05,26,07,02,11.00
2012,05,26,07,03,11.10
2012,05,26,07,04,11.10
2012,05,26,07,05,11.20
2012,05,26,07,06,11.20
2012,05,26,07,07,11.30
2012,05,26,07,08,11.40
2012,05,26,07,09,11.50
2012,05,26,07,10,11.50
2012,05,26,07,11,11.70
2012,05,26,07,12,11.80
2012,05,26,07,13,11.90
2012,05,26,07,14,12.00
2012,05,26,07,15,12.10
2012,05,26,07,16,12.20
2012,05,26,07,17,12.30
2012,05,26,07,18,12.30
2012,05,26,07,19,12.30
2012,05,26,07,20,12.40
2012,05,26,07,21,12.40
2012,05,26,07,22,12.40
2012,05,26,07,23,12.40
2012,05,26,07,24,12.40
2012,05,26,07,25,12.40
2012,05,26,07,26,12.40
2012,05,26,07,27,12.40
2012,05,26,07,28,12.40
2012,05,26,07,29,12.40
2012,05,26,07,30,12.50
2012,05,26,07,31,12.50
2012,05,26,07,32,12.60
2012,05,26,07,33,12.60
2012,05,26,07,34,12.70
2012,05,26,07,35,12.80
2012,05,26,07,36,12.80
2012,05,26,07,37,12.90
2012,05,26,07,38,12.90
2012,05,26,07,39,12.90
2012,05,26,07,40,12.90
2012,05,26,07,41,12.90
2012,05,26,07,42,12.90
2012,05,26,07,43,12.90
2012,05,26,07,44,12.90
2012,05,26,07,45,13.00
2012,05,26,07,46,13.00
2012,05,26,07,47,13.00
2012,05,26,07,48,13.10
2012,05,26,07,49,13.10
2012,05,26,07,50,13.10
2012,05,26,07,51,13.20
2012,05,26,07,52,13.30
2012,05,26,07,53,13.30
2012,05,26,07,54,13.40
2012,05,26,07,55,13.60
2012,05,26,07,56,13.70
2012,05,26,07,57,13.80
2012,05,26,07,58,13.90
2012,05,26,07,59,14.00
2012,05,26,08,00,14.10
2012,05,26,08,01,14.20
2012,05,26,08,02,14.30
2012,05,26,08,03,14.40
2012,05,26,08,04,14.50
2012,05,26,08,05,14.70
2012,05,26,08,06,14.80
2012,05,26,08,07,14.90
2012,05,26,08,08,15.00
2012,05,26,08,09,15.00
2012,05,26,08,10,15.10
2012,05,26,08,11,15.20
2012,05,26,08,12,15.20
2012,05,26,08,13,15.30
2012,05,26,08,14,15.30
2012,05,26,08,15,15.40
2012,05,26,08,16,15.50
2012,05,26,08,17,15.60
2012,05,26,08,18,15.70
2012,05,26,08,19,15.80
2012,05,26,08,20,15.80
2012,05,26,08,21,15.90
2012,05,26,08,22,16.00
2012,05,26,08,23,16.10
2012,05,26,08,24,16.10
2012,05,26,08,25,16.10
2012,05,26,08,26,16.10
2012,05,26,08,27,16.10
2012,05,26,08,28,16.20
2012,05,26,08,29,16.20
2012,05,26,08,30,16.30
2012,05,26,08,31,16.30
2012,05,26,08,32,16.40
2012,05,26,08,33,16.40
2012,05,26,08,34,16.40
2012,05,26,08,35,16.50
2012,05,26,08,36,16.50
2012,05,26,08,37,16.40
2012,05,26,08,38,16.40
2012,05,26,08,39,16.40
2012,05,26,08,40,16.40
2012,05,26,08,41,16.40
2012,05,26,08,42,16.40
2012,05,26,08,43,16.40
2012,05,26,08,44,16.30
2012,05,26,08,45,16.30
2012,05,26,08,46,16.30
2012,05,26,08,47,16.30
2012,05,26,08,48,16.20
2012,05,26,08,49,16.20
2012,05,26,08,50,16.20
2012,05,26,08,51,16.10
2012,05,26,08,52,16.10
2012,05,26,08,53,16.10
2012,05,26,08,54,16.10
2012,05,26,08,55,16.10
2012,05,26,08,56,16.10
2012,05,26,08,57,16.10
2012,05,26,08,58,16.20
2012,05,26,08,59,16.30
2012,05,26,09,00,16.40
2012,05,26,09,01,16.40
2012,05,26,09,02,16.40
2012,05,26,09,03,16.40
2012,05,26,09,04,16.40
2012,05,26,09,05,16.40
2012,05,26,09,06,16.50
2012,05,26,09,07,16.50
2012,05,26,09,08,16.60
2012,05,26,09,09,16.60
2012,05,26,09,10,16.60
2012,05,26,09,11,16.60
2012,05,26,09,12,16.60
2012,05,26,09,13,16.70
2012,05,26,09,14,16.70
2012,05,26,09,15,16.80
2012,05,26,09,16,16.70
2012,05,26,09,17,16.70
2012,05,26,09,18,16.60
2012,05,26,09,19,16.60
2012,05,26,09,20,16.60
2012,05,26,09,21,16.60
2012,05,26,09,22,16.60
2012,05,26,09,23,16.50
2012,05,26,09,24,16.50
2012,05,26,09,25,16.60
2012,05,26,09,26,16.60
2012,05,26,09,27,16.60
2012,05,26,09,28,16.70
2012,05,26,09,29,16.70
2012,05,26,09,30,16.80
2012,05,26,09,31,16.90
2012,05,26,09,32,16.90
2012,05,26,09,33,17.00
2012,05,26,09,34,17.10
2012,05,26,09,35,17.10
2012,05,26,09,36,17.20
2012,05,26,09,37,17.30
2012,05,26,09,38,17.40
2012,05,26,09,39,17.60
2012,05,26,09,40,17.70
2012,05,26,09,41,17.80
2012,05,26,09,42,17.90
2012,05,26,09,43,18.00
2012,05,26,09,44,18.10
2012,05,26,09,45,18.20
2012,05,26,09,46,18.30
2012,05,26,09,47,18.30
2012,05,26,09,48,18.40
2012,05,26,09,49,18.50
2012,05,26,09,50,18.50
2012,05,26,09,51,18.60
2012,05,26,09,52,18.60
2012,05,26,09,53,18.60
2012,05,26,09,54,18.60
2012,05,26,09,55,18.60
2012,05,26,09,56,18.70
2012,05,26,09,57,18.70
2012,05,26,09,58,18.70
2012,05,26,09,59,18.70
2012,05,26,10,00,18.70
2012,05,26,10,01,18.70
2012,05,26,10,02,18.70
2012,05,26,10,03,18.70
2012,05,26,10,04,18.80
2012,05,26,10,05,18.70
2012,05,26,10,06,18.80
2012,05,26,10,07,18.80
2012,05,26,10,08,18.90
2012,05,26,10,09,18.90
2012,05,26,10,10,18.90
2012,05,26,10,11,18.90
2012,05,26,10,12,18.90
2012,05,26,10,13,18.90
2012,05,26,10,14,18.90
2012,05,26,10,15,18.90
2012,05,26,10,16,18.90
2012,05,26,10,17,18.90
2012,05,26,10,18,18.90
2012,05,26,10,19,18.90
2012,05,26,10,20,19.00
2012,05,26,10,21,19.00
2012,05,26,10,22,19.10
2012,05,26,10,23,19.10
2012,05,26,10,24,19.20
2012,05,26,10,25,19.20
2012,05,26,10,26,19.20
2012,05,26,10,27,19.20
2012,05,26,10,28,19.20
2012,05,26,10,29,19.20
2012,05,26,10,30,19.20
2012,05,26,10,31,19.20
2012,05,26,10,32,19.00
2012,05,26,10,33,18.80
2012,05,26,10,34,18.60
2012,05,26,10,35,18.40
2012,05,26,10,36,18.20
2012,05,26,10,37,18.00
2012,05,26,10,38,17.90
2012,05,26,10,39,17.80
2012,05,26,10,40,17.80
2012,05,26,10,41,17.70
2012,05,26,10,42,17.70
2012,05,26,10,43,17.70
2012,05,26,10,44,17.80
2012,05,26,10,45,17.80
2012,05,26,10,46,17.90
2012,05,26,10,47,17.80
2012,05,26,10,48,17.80
2012,05,26,10,49,17.80
2012,05,26,10,50,17.80
2012,05,26,10,51,17.70
2012,05,26,10,52,17.60
2012,05,26,10,53,17.50
2012,05,26,10,54,17.40
2012,05,26,10,55,17.20
2012,05,26,10,56,17.20
2012,05,26,10,57,17.10
2012,05,26,10,58,17.00
2012,05,26,10,59,16.90
2012,05,26,11,00,16.80
2012,05,26,11,01,16.80
2012,05,26,11,02,16.70
2012,05,26,11,03,16.60
2012,05,26,11,04,16.70
2012,05,26,11,05,16.70
2012,05,26,11,06,16.70
2012,05,26,11,07,16.70
2012,05,26,11,08,16.80
2012,05,26,11,09,16.80
2012,05,26,11,10,16.80
2012,05,26,11,11,16.90
2012,05,26,11,12,17.00
2012,05,26,11,13,17.00
2012,05,26,11,14,17.10
2012,05,26,11,15,17.10
2012,05,26,11,16,17.10
2012,05,26,11,17,17.20
2012,05,26,11,18,17.20
2012,05,26,11,19,17.30
2012,05,26,11,20,17.40
2012,05,26,11,21,17.40
2012,05,26,11,22,17.50
2012,05,26,11,23,17.60
2012,05,26,11,24,17.50
2012,05,26,11,25,17.50
2012,05,26,11,26,17.50
2012,05,26,11,27,17.60
2012,05,26,11,28,17.60
2012,05,26,11,29,17.60
2012,05,26,11,30,17.70
2012,05,26,11,31,17.80
2012,05,26,11,32,18.00
2012,05,26,11,33,18.10
2012,05,26,11,34,18.20
2012,05,26,11,35,18.20
2012,05,26,11,36,18.30
2012,05,26,11,37,18.40
2012,05,26,11,38,18.50
2012,05,26,11,39,18.60
2012,05,26,11,40,18.60
2012,05,26,11,41,18.40
2012,05,26,11,42,18.30
2012,05,26,11,43,18.20
2012,05,26,11,44,18.20
2012,05,26,11,45,18.20
2012,05,26,11,46,18.10
2012,05,26,11,47,18.20
2012,05,26,11,48,18.20
2012,05,26,11,49,18.20
2012,05,26,11,50,18.20
2012,05,26,11,51,18.30
2012,05,26,11,52,18.30
2012,05,26,11,53,18.30
2012,05,26,11,54,18.30
2012,05,26,11,55,18.30
2012,05,26,11,56,18.30
2012,05,26,11,57,18.30
2012,05,26,11,58,18.40
2012,05,26,11,59,18.60
2012,05,26,12,00,18.70
2012,05,26,12,01,18.80
2012,05,26,12,02,18.90
2012,05,26,12,03,18.90
2012,05,26,12,04,18.80
2012,05,26,12,05,18.80
2012,05,26,12,06,18.60
2012,05,26,12,07,18.50
2012,05,26,12,08,18.40
2012,05,26,12,09,18.40
2012,05,26,12,10,18.40
2012,05,26,12,11,18.50
2012,05,26,12,12,18.60
2012,05,26,12,13,18.60
2012,05,26,12,14,18.70
2012,05,26,12,15,18.70
2012,05,26,12,16,18.70
2012,05,26,12,17,18.70
2012,05,26,12,18,18.60
2012,05,26,12,19,18.60
2012,05,26,12,20,18.60
2012,05,26,12,21,18.60
2012,05,26,12,22,18.50
2012,05,26,12,23,18.40
2012,05,26,12,24,18.40
2012,05,26,12,25,18.30
2012,05,26,12,26,18.20
2012,05,26,12,27,18.20
2012,05,26,12,28,18.30
2012,05,26,12,29,18.30
2012,05,26,12,30,18.40
2012,05,26,12,31,18.50
2012,05,26,12,32,18.60
2012,05,26,12,33,18.60
2012,05,26,12,34,18.60
2012,05,26,12,35,18.50
2012,05,26,12,36,18.40
2012,05,26,12,37,18.30
2012,05,26,12,38,18.30
2012,05,26,12,39,18.30
2012,05,26,12,40,18.30
2012,05,26,12,41,18.30
2012,05,26,12,42,18.40
2012,05,26,12,43,18.30
2012,05,26,12,44,18.30
2012,05,26,12,45,18.30
2012,05,26,12,46,18.20
2012,05,26,12,47,18.20
2012,05,26,12,48,18.30
2012,05,26,12,49,18.40
2012,05,26,12,50,18.50
2012,05,26,12,51,18.70
2012,05,26,12,52,18.80
2012,05,26,12,53,18.90
2012,05,26,12,54,18.90
2012,05,26,12,55,18.90
2012,05,26,12,56,18.90
2012,05,26,12,57,19.00
2012,05,26,12,58,19.10
2012,05,26,12,59,19.20
2012,05,26,13,00,19.20
2012,05,26,13,01,19.30
2012,05,26,13,02,19.30
2012,05,26,13,03,19.30
2012,05,26,13,04,19.30
2012,05,26,13,05,19.30
2012,05,26,13,06,19.30
2012,05,26,13,07,19.30
2012,05,26,13,08,19.30
2012,05,26,13,09,19.40
2012,05,26,13,10,19.40
2012,05,26,13,11,19.30
2012,05,26,13,12,19.30
2012,05,26,13,13,19.20
2012,05,26,13,14,19.10
2012,05,26,13,15,19.00
2012,05,26,13,16,19.00
2012,05,26,13,17,19.10
2012,05,26,13,18,19.10
2012,05,26,13,19,19.10
2012,05,26,13,20,19.00
2012,05,26,13,21,19.00
2012,05,26,13,22,19.10
2012,05,26,13,23,19.10
2012,05,26,13,24,19.10
2012,05,26,13,25,19.10
2012,05,26,13,26,19.20
2012,05,26,13,27,19.20
2012,05,26,13,28,19.30
2012,05,26,13,29,19.30
2012,05,26,13,30,19.30
2012,05,26,13,31,19.30
2012,05,26,13,32,19.30
2012,05,26,13,33,19.40
2012,05,26,13,34,19.40
2012,05,26,13,35,19.40
2012,05,26,13,36,19.40
2012,05,26,13,37,19.50
2012,05,26,13,38,19.50
2012,05,26,13,39,19.40
2012,05,26,13,40,19.40
2012,05,26,13,41,19.40
2012,05,26,13,42,19.40
2012,05,26,13,43,19.40
2012,05,26,13,44,19.40
2012,05,26,13,45,19.50
2012,05,26,13,46,19.50
2012,05,26,13,47,19.40
2012,05,26,13,48,19.40
2012,05,26,13,49,19.30
2012,05,26,13,50,19.30
2012,05,26,13,51,19.30
2012,05,26,13,52,19.30
2012,05,26,13,53,19.40
2012,05,26,13,54,19.50
2012,05,26,13,55,19.50
2012,05,26,13,56,19.60
2012,05,26,13,57,19.70
2012,05,26,13,58,19.90
2012,05,26,13,59,19.90
2012,05,26,14,00,20.00
2012,05,26,14,01,20.20
2012,05,26,14,02,20.30
2012,05,26,14,03,20.40
2012,05,26,14,04,20.60
2012,05,26,14,05,20.70
2012,05,26,14,06,20.80
2012,05,26,14,07,20.80
2012,05,26,14,08,20.90
2012,05,26,14,09,20.90
2012,05,26,14,10,20.90
2012,05,26,14,11,20.90
2012,05,26,14,12,20.80
2012,05,26,14,13,20.70
2012,05,26,14,14,20.60
2012,05,26,14,15,20.50
2012,05,26,14,16,20.50
2012,05,26,14,17,20.50
2012,05,26,14,18,20.60
2012,05,26,14,19,20.60
2012,05,26,14,20,20.70
2012,05,26,14,21,20.80
2012,05,26,14,22,20.90
2012,05,26,14,23,20.90
2012,05,26,14,24,20.90
2012,05,26,14,25,20.80
2012,05,26,14,26,20.70
2012,05,26,14,27,20.60
2012,05,26,14,28,20.60
2012,05,26,14,29,20.60
2012,05,26,14,30,20.60
2012,05,26,14,31,20.70
2012,05,26,14,32,20.70
2012,05,26,14,33,20.80
2012,05,26,14,34,20.90
2012,05,26,14,35,21.00
2012,05,26,14,36,21.20
2012,05,26,14,37,21.20
2012,05,26,14,38,21.30
2012,05,26,14,39,21.30
2012,05,26,14,40,21.20
2012,05,26,14,41,21.10
2012,05,26,14,42,21.10
2012,05,26,14,43,21.10
2012,05,26,14,44,21.00
2012,05,26,14,45,21.00
2012,05,26,14,46,21.00
2012,05,26,14,47,21.00
2012,05,26,14,48,20.90
2012,05,26,14,49,20.90
2012,05,26,14,50,21.00
2012,05,26,14,51,21.10
2012,05,26,14,52,21.10
2012,05,26,14,53,21.20
2012,05,26,14,54,21.30
2012,05,26,14,55,21.30
2012,05,26,14,56,21.40
2012,05,26,14,57,21.50
2012,05,26,14,58,21.50
2012,05,26,14,59,21.60
2012,05,26,15,00,21.70
2012,05,26,15,01,21.80
2012,05,26,15,02,21.90
2012,05,26,15,03,21.80
2012,05,26,15,04,21.90
2012,05,26,15,05,21.90
2012,05,26,15,06,21.90
2012,05,26,15,07,21.90
2012,05,26,15,08,21.80
2012,05,26,15,09,21.80
2012,05,26,15,10,21.70
2012,05,26,15,11,21.60
2012,05,26,15,12,21.50
2012,05,26,15,13,21.40
2012,05,26,15,14,21.40
2012,05,26,15,15,21.40
2012,05,26,15,16,21.50
2012,05,26,15,17,21.50
2012,05,26,15,18,21.50
2012,05,26,15,19,21.60
2012,05,26,15,20,21.70
2012,05,26,15,21,21.70
2012,05,26,15,22,21.50
2012,05,26,15,23,21.50
2012,05,26,15,24,21.40
2012,05,26,15,25,21.40
2012,05,26,15,26,21.40
2012,05,26,15,27,21.40
2012,05,26,15,28,21.30
2012,05,26,15,29,21.30
2012,05,26,15,30,21.30
2012,05,26,15,31,21.30
2012,05,26,15,32,21.30
2012,05,26,15,33,21.30
2012,05,26,15,34,21.30
2012,05,26,15,35,21.30
2012,05,26,15,36,21.40
2012,05,26,15,37,21.50
2012,05,26,15,38,21.60
2012,05,26,15,39,21.70
2012,05,26,15,40,21.80
2012,05,26,15,41,21.90
2012,05,26,15,42,22.10
2012,05,26,15,43,22.30
2012,05,26,15,44,22.50
2012,05,26,15,45,22.80
2012,05,26,15,46,22.90
2012,05,26,15,47,23.20
2012,05,26,15,48,23.30
2012,05,26,15,49,23.40
2012,05,26,15,50,23.50
2012,05,26,15,51,23.50
2012,05,26,15,52,23.70
2012,05,26,15,53,23.80
2012,05,26,15,54,23.90
2012,05,26,15,55,24.10
2012,05,26,15,56,24.10
2012,05,26,15,57,24.20
2012,05,26,15,58,24.20
2012,05,26,15,59,24.20
2012,05,26,16,00,24.30
2012,05,26,16,01,24.40
2012,05,26,16,02,24.40
2012,05,26,16,03,24.50
2012,05,26,16,04,24.60
2012,05,26,16,05,24.60
2012,05,26,16,06,24.60
2012,05,26,16,07,24.60
2012,05,26,16,08,24.60
2012,05,26,16,09,24.60
2012,05,26,16,10,24.50
2012,05,26,16,11,24.40
2012,05,26,16,12,24.30
2012,05,26,16,13,24.30
2012,05,26,16,14,24.20
2012,05,26,16,15,24.10
2012,05,26,16,16,24.00
2012,05,26,16,17,24.00
2012,05,26,16,18,23.90
2012,05,26,16,19,23.90
2012,05,26,16,20,23.80
2012,05,26,16,21,23.90
2012,05,26,16,22,23.90
2012,05,26,16,23,23.90
2012,05,26,16,24,24.00
2012,05,26,16,25,24.00
2012,05,26,16,26,24.00
2012,05,26,16,27,24.00
2012,05,26,16,28,24.10
2012,05,26,16,29,24.10
2012,05,26,16,30,24.20
2012,05,26,16,31,24.30
2012,05,26,16,32,24.40
2012,05,26,16,33,24.40
2012,05,26,16,34,24.50
2012,05,26,16,35,24.50
2012,05,26,16,36,24.50
2012,05,26,16,37,24.60
2012,05,26,16,38,24.60
2012,05,26,16,39,24.70
2012,05,26,16,40,24.70
2012,05,26,16,41,24.80
2012,05,26,16,42,24.90
2012,05,26,16,43,25.00
2012,05,26,16,44,25.10
2012,05,26,16,45,25.10
2012,05,26,16,46,25.00
2012,05,26,16,47,25.00
2012,05,26,16,48,24.90
2012,05,26,16,49,24.90
2012,05,26,16,50,24.90
2012,05,26,16,51,24.90
2012,05,26,16,52,24.90
2012,05,26,16,53,24.90
2012,05,26,16,54,24.90
2012,05,26,16,55,24.80
2012,05,26,16,56,24.80
2012,05,26,16,57,24.80
2012,05,26,16,58,24.80
2012,05,26,16,59,24.70
2012,05,26,17,00,24.70
2012,05,26,17,01,24.60
2012,05,26,17,02,24.60
2012,05,26,17,03,24.60
2012,05,26,17,04,24.70
2012,05,26,17,05,24.70
2012,05,26,17,06,24.80
2012,05,26,17,07,24.90
2012,05,26,17,08,24.90
2012,05,26,17,09,24.90
2012,05,26,17,10,24.90
2012,05,26,17,11,24.90
2012,05,26,17,12,24.80
2012,05,26,17,13,24.80
2012,05,26,17,14,24.70
2012,05,26,17,15,24.60
2012,05,26,17,16,24.40
2012,05,26,17,17,24.20
2012,05,26,17,18,24.10
2012,05,26,17,19,23.90
2012,05,26,17,20,23.70
2012,05,26,17,21,23.70
2012,05,26,17,22,23.70
2012,05,26,17,23,23.70
2012,05,26,17,24,23.80